Regional Weather Roundup
Issued by NWS

Home | Current Version | Previous Version | Graphics & Text | Print | Product List | Glossary On
Versions: 1 2 3 4 5 6 7 8 9 10 11 12 13 14 15 16 17 18 19 20 21 22 23 24 25 26 27 28 29 30 31 32 33 34 35 36 37 38 39 40 41 42 43 44 45 46 47 48 49 50
000
ASUS43 KBIS 280902
RWRND

NORTH DAKOTA REGIONAL WEATHER ROUNDUP
NATIONAL WEATHER SERVICE BISMARCK ND
400 AM CDT THU APR 28 2016

NOTE: "FAIR" INDICATES FEW OR NO CLOUDS BELOW 12,000 FEET WITH NO
SIGNIFICANT WEATHER AND/OR OBSTRUCTIONS TO VISIBILITY.


NDZ001>003-009>011-017-281000-
NORTHWEST NORTH DAKOTA

CITY           SKY/WX    TMP DP  RH WIND       PRES   REMARKS
WILLISTON      CLOUDY    40  25  55 NE9       30.08S
MINOT          CLOUDY    39  24  55 N9        30.07S
MINOT AFB      CLOUDY    38  24  55 N9        30.07S
$$

NDZ018>021-031>035-040>046-281000-
SOUTHWEST NORTH DAKOTA

CITY           SKY/WX    TMP DP  RH WIND       PRES   REMARKS
BISMARCK       LGT RAIN  40  35  83 E10       30.02R
DICKINSON      CLOUDY    35  29  78 E6        29.99R
GARRISON         N/A     39  26  59 NE9       30.03R
HETTINGER ARPT CLOUDY    33  31  92 N7        30.01R
$$

NDZ004>008-012>016-024-026-027-054-281000-
NORTHEAST NORTH DAKOTA

CITY           SKY/WX    TMP DP  RH WIND       PRES   REMARKS
GRAND FORKS    CLOUDY    41  24  51 NE9       30.05R
GRND FRKS AFB  CLOUDY    36  23  59 N3        30.05S
DEVILS LAKE    CLOUDY    40  22  48 NE12      30.06R
$$

NDZ022-023-025-028>030-036>039-047>053-281000-
SOUTHEAST NORTH DAKOTA

CITY           SKY/WX    TMP DP  RH WIND       PRES   REMARKS
FARGO          CLOUDY    45  26  47 N8        29.99S
JAMESTOWN      CLOUDY    41  31  67 SE8       30.00S
$$





USA.gov is the U.S. government's official web portal to all federal, state and local government web resources and services.